Regional Weather Roundup
Issued by NWS

Home | Current Version | Previous Version | Text Only | Print | Product List | Glossary Off
Versions: 1 2 3 4 5 6 7 8 9 10 11 12 13 14 15 16 17 18 19 20 21 22 23 24 25 26 27 28 29 30 31 32 33 34 35 36 37 38 39 40 41 42 43 44 45 46 47 48 49 50

873
ASUS43 KFSD 271410
RWRSD

WEATHER ROUNDUP FOR SOUTH DAKOTA
NATIONAL WEATHER SERVICE SIOUX FALLS SD
900 AM CDT WED JUL 27 2016

NOTE: "FAIR" INDICATES FEW OR NO CLOUDS BELOW 12,000 FEET WITH NO
SIGNIFICANT WEATHER AND/OR OBSTRUCTIONS TO VISIBILITY.


SDZ001>005-009-010-012>017-271500-
NORTHWEST AND NORTH CENTRAL SOUTH DAKOTA

CITY           SKY/WX    TMP DP  RH WIND       PRES   REMARKS
BUFFALO          N/A     63  61  93 NE14      30.06F
FAITH            N/A     64  62  93 S5        30.12R
MOBRIDGE       CLOUDY    70  62  76 N6        30.05S
$$

SDZ012>016-024>037-041>051-057-063-072>074-271500-
SOUTHWEST AND SOUTH CENTRAL SOUTH DAKOTA

CITY           SKY/WX    TMP DP  RH WIND       PRES   REMARKS
RAPID CTY ARPT PTSUNNY   67  62  84 SE6       30.12F
PIERRE         SUNNY     71  64  78 N8        30.03R
CUSTER         CLOUDY    57  54  89 CALM      30.25S
ELLSWORTH AFB  PTSUNNY   67  64  89 SE8       30.12
PHILIP         PTSUNNY   69  65  86 N14       30.07S
PINE RIDGE     CLOUDY    66  63  90 W12       30.19R
WINNER         FAIR      72  61  68 W5        30.04S
$$

SDZ004>011-016>023-039-040-271500-
NORTHEAST SOUTH DAKOTA

CITY           SKY/WX    TMP DP  RH WIND       PRES   REMARKS
ABERDEEN       MOSUNNY   69  63  81 N12       30.03S
WATERTOWN      PTSUNNY   70  64  81 N12       30.01S
BROOKINGS      CLOUDY    68  65  90 NW3       29.99R
SISSETON         N/A     68  66  93 N12       30.00S
$$

SDZ017-020-022-023-036>040-048>070-271500-
SOUTHEAST SOUTH DAKOTA

CITY           SKY/WX    TMP DP  RH WIND       PRES   REMARKS
SIOUX FALLS    PTSUNNY   74  67  78 N7        29.97F
HURON          SUNNY     71  64  78 N12       30.01R
CHAMBERLAIN    SUNNY     73  64  74 NW7       30.03S
MITCHELL       SUNNY     75  66  73 NW12      30.01R
YANKTON        SUNNY     73  61  64 W9        30.00R
$$

ABBREVIATIONS USED IN REMARKS
   TC - TEMPERATURE IN CELSIUS
  WCI - WIND CHILL INDEX
   HX - HEAT INDEX
  VSB - VISIBILITY





USA.gov is the U.S. government's official web portal to all federal, state and local government web resources and services.